This is the latest recevied weather packets stored in our database for station/object KC9GSD. If no packets are shown the sender has not sent any weather packets the latest 1 day(s).
| Time | Temp. | Humidity | Pressure | Rain* | Wind** | Luminosity | Snow |
|---|---|---|---|---|---|---|---|
| 1778035826 | 18.89° C | 67% | 1011.6 hPa | 0 mm | 0 m/s | 0 W/m² | - |
| 1778035523 | 18.89° C | 68% | 1011.6 hPa | 0 mm | 0 m/s | 0 W/m² | - |
| 1778035220 | 18.89° C | 69% | 1011.3 hPa | 0 mm | 0 m/s | 0 W/m² | - |
| 1778034916 | 18.89° C | 68% | 1011.5 hPa | 0 mm | 0.45 m/s, 121° | 0 W/m² | - |
| 1778034614 | 19.44° C | 66% | 1011.5 hPa | 0 mm | 0 m/s | 0 W/m² | - |
| 1778034311 | 19.44° C | 67% | 1011.5 hPa | 0 mm | 0 m/s | 0 W/m² | - |
| 1778034009 | 19.44° C | 67% | 1011.8 hPa | 0 mm | 0 m/s | 0 W/m² | - |
| 1778033706 | 19.44° C | 65% | 1011.5 hPa | 0 mm | 0 m/s | 0 W/m² | - |
| 1778033403 | 20° C | 65% | 1011.6 hPa | 0 mm | 0 m/s | 0 W/m² | - |
| 1778033100 | 20° C | 66% | 1011.8 hPa | 0 mm | 0 m/s | 0 W/m² | - |
| 1778032797 | 20° C | 65% | 1011.7 hPa | 0 mm | 0 m/s | 0 W/m² | - |
| 1778032495 | 20° C | 63% | 1011.9 hPa | 0 mm | 0 m/s | 0 W/m² | - |
| 1778032191 | 20° C | 64% | 1011.8 hPa | 0 mm | 0 m/s | 0 W/m² | - |
| 1778031888 | 20° C | 66% | 1011.6 hPa | 0 mm | 0 m/s | 0 W/m² | - |
| 1778031585 | 20° C | 66% | 1011.9 hPa | 0 mm | 0 m/s | 0 W/m² | - |
| 1778031283 | 20° C | 66% | 1011.7 hPa | 0 mm | 0.45 m/s, 181° | 0 W/m² | - |
| 1778030979 | 20° C | 67% | 1011.7 hPa | 0 mm | 0 m/s | 0 W/m² | - |
| 1778030676 | 20° C | 65% | 1011.5 hPa | 0 mm | 0 m/s | 0 W/m² | - |
| 1778030372 | 20° C | 66% | 1011.7 hPa | 0 mm | 0 m/s | 0 W/m² | - |
| 1778030070 | 20° C | 67% | 1011.7 hPa | 0 mm | 0 m/s | 0 W/m² | - |
| 1778029767 | 20° C | 66% | 1011.6 hPa | 0 mm | 0 m/s | 0 W/m² | - |
| 1778029466 | 20° C | 63% | 1011.4 hPa | 0 mm | 0 m/s | 0 W/m² | - |
| 1778029161 | 19.44° C | 66% | 1011.4 hPa | 0 mm | 0 m/s | 0 W/m² | - |
| 1778028859 | 20° C | 66% | 1011.3 hPa | 0 mm | 0 m/s | 0 W/m² | - |
| 1778028554 | 20° C | 65% | 1011.4 hPa | 0 mm | 0 m/s | 0 W/m² | - |
* Rain latest hour (hover to see other rain measurements)
** Current wind speed in m/s (hover to see current wind gust speed)